Location: Kutna Hora
(49.9500°N, 15.2670°E)
Time: 07:27:26
(UTC+02:00)

ISS - Pass Details

Date: 25 May 2019
Orbit: 407 x 418 km, 51.6° (Epoch: 20 June)

Event Time Altitude Azimuth Distance (km) Brightness Sun altitude
Rises 21:45:27 0° 268° (W) 2,351 0.7 -7.5°
Reaches altitude 10° 21:47:33 10° 272° (W) 1,491 -0.2 -7.7°
Maximum altitude 21:50:53 65° 355° (N) 464 -3.3 -8.1°
Drops below altitude 10° 21:54:14 10° 78° (ENE) 1,499 -1.2 -8.5°
Sets 21:56:21 0° 81° (E) 2,365 -0.3 -8.7°
